WE0DX-1 Weather Reports


Display with metric or nautical units.
time (UTC)temp
F
wind
direction
speed
MPH
gust
MPH
rain 1hr
in
rain 24hr
in
rain mn
in
humidity
%
barometer
mb
20260904181601 94 129 0.0 1.0 0.00 0.00 0.00 51 1013.7
20260904181100 94 91 0.0 3.0 0.00 0.00 0.00 51 1013.7
20260904180555 94 129 1.0 3.0 0.00 0.00 0.00 50 1013.8
20260904180050 94 139 1.0 2.0 0.00 0.00 0.00 51 1013.8
20260904175549 93 127 6.0 8.0 0.00 0.00 0.00 52 1013.6
20260904175048 93 239 2.0 2.0 0.00 0.00 0.00 52 1013.8
20260904174543 93 187 3.0 5.0 0.00 0.00 0.00 52 1013.9
20260904174040 93 112 0.0 1.0 0.00 0.00 0.00 53 1013.8
20260904173539 93 187 3.0 5.0 0.00 0.00 0.00 54 1013.9
20260904173035 92 204 1.0 2.0 0.00 0.00 0.00 54 1014.0
20260904172531 92 107 1.0 6.0 0.00 0.00 0.00 54 1013.8
20260904172030 93 190 3.0 5.0 0.00 0.00 0.00 54 1014.0
20260904171526 93 128 0.0 0.0 0.00 0.00 0.00 54 1014.2
20260904171021 92 159 3.0 9.0 0.00 0.00 0.00 54 1014.1
20260904170516 92 222 3.0 5.0 0.00 0.00 0.00 54 1014.3
20260904170013 92 102 7.0 10.0 0.00 0.00 0.00 55 1014.1
20260904165511 91 170 1.0 2.0 0.00 0.00 0.00 56 1014.4
20260904165011 91 83 1.0 6.0 0.00 0.00 0.00 57 1014.4
20260904164506 91 199 3.0 7.0 0.00 0.00 0.00 56 1014.4
20260904164002 91 135 1.0 5.0 0.00 0.00 0.00 58 1014.5
20260904163501 90 103 1.0 6.0 0.00 0.00 0.00 59 1014.3
20260904162955 91 191 4.0 9.0 0.00 0.00 0.00 58 1014.5
20260904162451 91 111 0.0 2.0 0.00 0.00 0.00 59 1014.3
20260904161946 90 161 1.0 3.0 0.00 0.00 0.00 60 1014.2
20260904161441 90 155 0.0 2.0 0.00 0.00 0.00 60 1014.3
20260904160937 89 172 2.0 5.0 0.00 0.00 0.00 60 1014.4
20260904160431 90 214 2.0 3.0 0.00 0.00 0.00 61 1014.4
20260904155927 89 110 1.0 3.0 0.00 0.00 0.00 62 1014.3
20260904155421 89 25 1.0 6.0 0.00 0.00 0.00 62 1014.3
20260904154920 89 230 1.0 2.0 0.00 0.00 0.00 61 1014.5
20260904154414 88 151 1.0 5.0 0.00 0.00 0.00 62 1014.5
20260904153910 89 141 3.0 3.0 0.00 0.00 0.00 61 1014.5
20260904153406 89 148 0.0 0.0 0.00 0.00 0.00 62 1014.5
20260904152902 88 227 2.0 3.0 0.00 0.00 0.00 63 1014.5
20260904152401 88 122 0.0 0.0 0.00 0.00 0.00 63 1014.5
20260904151856 87 109 0.0 0.0 0.00 0.00 0.00 64 1014.4
20260904151355 87 157 1.0 2.0 0.00 0.00 0.00 64 1014.6
20260904150851 86 113 1.0 3.0 0.00 0.00 0.00 64 1014.7
20260904150346 86 156 1.0 6.0 0.00 0.00 0.00 65 1014.4
20260904145844 87 132 0.0 0.0 0.00 0.00 0.00 63 1014.4
20260904145341 86 117 0.0 0.0 0.00 0.00 0.00 64 1014.4
20260904144836 86 151 0.0 0.0 0.00 0.00 0.00 66 1014.4
20260904144331 85 96 0.0 2.0 0.00 0.00 0.00 66 1014.5
20260904143827 85 104 2.0 3.0 0.00 0.00 0.00 67 1014.5
20260904143323 85 136 1.0 2.0 0.00 0.00 0.00 66 1014.2
20260904142820 85 100 0.0 0.0 0.00 0.00 0.00 68 1014.6
20260904142315 84 115 0.0 0.0 0.00 0.00 0.00 68 1014.2
20260904141810 84 135 3.0 3.0 0.00 0.00 0.00 68 1014.4
20260904141305 84 179 1.0 3.0 0.00 0.00 0.00 69 1014.4
20260904140801 84 111 0.0 0.0 0.00 0.00 0.00 70 1014.5
20260904140256 84 114 0.0 0.0 0.00 0.00 0.00 70 1014.6
20260904135754 83 117 0.0 0.0 0.00 0.00 0.00 71 1014.3
20260904135250 82 109 0.0 0.0 0.00 0.00 0.00 71 1014.4
20260904134746 82 106 0.0 0.0 0.00 0.00 0.00 72 1014.4
20260904134245 82 128 0.0 0.0 0.00 0.00 0.00 73 1014.6
20260904133740 82 125 0.0 0.0 0.00 0.00 0.00 74 1014.3
20260904133236 81 112 0.0 0.0 0.00 0.00 0.00 74 1014.4
20260904132736 81 96 0.0 0.0 0.00 0.00 0.00 74 1014.4
20260904132231 81 154 0.0 0.0 0.00 0.00 0.00 73 1014.2
20260904131730 81 170 0.0 0.0 0.00 0.00 0.00 74 1014.2
20260904131226 80 110 0.0 0.0 0.00 0.00 0.00 74 1014.0
20260904130721 80 92 0.0 0.0 0.00 0.00 0.00 75 1014.2
20260904130220 80 95 0.0 0.0 0.00 0.00 0.00 76 1014.0
20260904125716 80 101 0.0 0.0 0.00 0.00 0.00 76 1014.1
20260904125212 79 99 0.0 0.0 0.00 0.00 0.00 76 1014.2
20260904124712 79 101 0.0 0.0 0.00 0.00 0.00 76 1014.0
20260904124208 79 118 0.0 0.0 0.00 0.00 0.00 76 1014.0
20260904123703 79 96 0.0 0.0 0.00 0.00 0.00 76 1013.9
20260904123158 79 113 0.0 0.0 0.00 0.00 0.00 77 1013.9
20260904122653 79 141 0.0 0.0 0.00 0.00 0.00 77 1014.0
20260904122148 79 96 0.0 0.0 0.00 0.00 0.00 77 1013.8
20260904121643 78 98 0.0 0.0 0.00 0.00 0.00 77 1013.8
20260904121139 78 129 0.0 0.0 0.00 0.00 0.00 77 1013.5
20260904120635 78 100 0.0 0.0 0.00 0.00 0.00 77 1013.4
20260904120131 78 123 0.0 0.0 0.00 0.00 0.00 77 1013.6
20260904115630 78 128 0.0 0.0 0.00 0.00 0.00 77 1013.4
20260904115125 78 138 0.0 0.0 0.00 0.00 0.00 77 1013.4
20260904114620 79 110 0.0 0.0 0.00 0.00 0.00 76 1013.3
20260904114114 79 130 0.0 0.0 0.00 0.00 0.00 76 1013.0
20260904113609 78 128 0.0 0.0 0.00 0.00 0.00 76 1013.2
20260904113108 78 99 0.0 0.0 0.00 0.00 0.00 77 1013.0
20260904112604 78 129 0.0 0.0 0.00 0.00 0.00 77 1013.2
20260904112059 78 110 0.0 0.0 0.00 0.00 0.00 77 1013.2
20260904111554 78 99 0.0 0.0 0.00 0.00 0.00 77 1013.1
20260904111050 78 107 0.0 0.0 0.00 0.00 0.00 77 1013.1
20260904110545 79 95 0.0 0.0 0.00 0.00 0.00 76 1013.2
20260904110040 79 96 0.0 0.0 0.00 0.00 0.00 76 1013.1
20260904105540 79 110 0.0 0.0 0.00 0.00 0.00 76 1013.1
20260904105035 79 112 0.0 0.0 0.00 0.00 0.00 76 1012.9
20260904104530 79 99 0.0 0.0 0.00 0.00 0.00 76 1013.1
20260904104026 79 99 0.0 0.0 0.00 0.00 0.00 76 1012.8
20260904103521 79 129 0.0 0.0 0.00 0.00 0.00 75 1012.8
20260904103018 79 102 0.0 0.0 0.00 0.00 0.00 76 1012.8
20260904102513 79 96 0.0 0.0 0.00 0.00 0.00 75 1012.7
20260904102008 79 114 0.0 0.0 0.00 0.00 0.00 75 1012.8
20260904101505 79 147 0.0 0.0 0.00 0.00 0.00 75 1012.7
20260904101001 79 125 0.0 0.0 0.00 0.00 0.00 74 1012.5
20260904100456 79 103 0.0 0.0 0.00 0.00 0.00 74 1012.8
20260904095955 80 125 0.0 0.0 0.00 0.00 0.00 74 1012.5
20260904095450 80 143 0.0 0.0 0.00 0.00 0.00 74 1012.7
20260904094945 80 114 0.0 0.0 0.00 0.00 0.00 73 1012.5
20260904094440 80 108 0.0 0.0 0.00 0.00 0.00 73 1012.4
20260904093936 80 102 0.0 0.0 0.00 0.00 0.00 73 1012.4
20260904093432 80 133 0.0 0.0 0.00 0.00 0.00 72 1012.3
20260904092927 80 123 0.0 0.0 0.00 0.00 0.00 73 1012.0
20260904092423 80 116 0.0 0.0 0.00 0.00 0.00 72 1012.1
20260904091919 80 113 0.0 0.0 0.00 0.00 0.00 72 1012.3
20260904091414 80 111 0.0 0.0 0.00 0.00 0.00 72 1012.0
20260904090909 80 108 0.0 0.0 0.00 0.00 0.00 71 1012.2
20260904090405 80 111 0.0 0.0 0.00 0.00 0.00 72 1012.3
20260904085900 80 89 0.0 0.0 0.00 0.00 0.00 71 1011.9
20260904085355 80 95 0.0 0.0 0.00 0.00 0.00 72 1011.9
20260904084849 80 106 0.0 0.0 0.00 0.00 0.00 71 1011.9
20260904084345 80 112 0.0 0.0 0.00 0.00 0.00 71 1012.0
20260904083841 81 106 0.0 0.0 0.00 0.00 0.00 70 1011.9
20260904083337 81 97 0.0 0.0 0.00 0.00 0.00 70 1011.8
20260904082833 81 97 0.0 0.0 0.00 0.00 0.00 70 1012.0
20260904082327 80 96 0.0 0.0 0.00 0.00 0.00 71 1012.0
20260904081822 80 105 0.0 0.0 0.00 0.00 0.00 71 1012.0
20260904081318 80 105 0.0 0.0 0.00 0.00 0.00 71 1011.9
20260904080814 80 105 0.0 0.0 0.00 0.00 0.00 70 1011.9
20260904080309 81 105 0.0 0.0 0.00 0.00 0.00 70 1012.0
20260904075806 81 105 0.0 0.0 0.00 0.00 0.00 70 1011.8
20260904075300 81 105 0.0 0.0 0.00 0.00 0.00 70 1011.7
20260904074759 81 105 0.0 0.0 0.00 0.00 0.00 70 1011.8
20260904074254 81 105 0.0 0.0 0.00 0.00 0.00 69 1011.9
20260904073750 81 105 0.0 0.0 0.00 0.00 0.00 69 1011.9
20260904073246 81 105 0.0 0.0 0.00 0.00 0.00 69 1011.7
20260904072742 81 105 0.0 0.0 0.00 0.00 0.00 69 1011.9
20260904072241 82 105 0.0 0.0 0.00 0.00 0.00 69 1011.8
20260904071737 82 105 0.0 0.0 0.00 0.00 0.00 68 1011.8
20260904071232 82 106 0.0 0.0 0.00 0.00 0.00 67 1011.9
20260904070731 82 104 0.0 0.0 0.00 0.00 0.00 66 1011.7
20260904070230 83 106 0.0 0.0 0.00 0.00 0.00 66 1011.9
20260904065725 83 106 0.0 0.0 0.00 0.00 0.00 66 1011.9
20260904065222 83 102 0.0 0.0 0.00 0.00 0.00 65 1012.0
20260904064722 83 102 0.0 0.0 0.00 0.00 0.00 65 1012.0
20260904064217 83 102 0.0 0.0 0.00 0.00 0.00 64 1012.0
20260904063713 83 95 0.0 0.0 0.00 0.00 0.00 64 1012.1
20260904063209 83 98 0.0 0.0 0.00 0.00 0.00 64 1012.0
20260904062705 84 105 0.0 0.0 0.00 0.00 0.00 63 1012.1
20260904062200 84 110 0.0 0.0 0.00 0.00 0.00 63 1012.2
20260904061656 84 107 0.0 0.0 0.00 0.00 0.00 63 1012.1
20260904061152 84 101 0.0 0.0 0.00 0.00 0.00 62 1012.0
20260904060648 84 100 0.0 0.0 0.00 0.00 0.00 62 1012.1
20260904060145 84 104 0.0 0.0 0.00 0.00 0.00 62 1012.0
20260904055644 84 102 0.0 0.0 0.00 0.00 0.00 62 1011.9
20260904055139 84 102 0.0 0.0 0.00 0.00 0.00 62 1011.9
20260904054635 84 102 0.0 0.0 0.00 0.00 0.00 61 1011.8
20260904054132 84 103 0.0 0.0 0.00 0.00 0.00 61 1011.7
20260904053632 84 106 0.0 0.0 0.00 0.00 0.00 61 1011.8
20260904053126 84 95 0.0 0.0 0.00 0.00 0.00 60 1011.8
20260904052623 85 108 0.0 0.0 0.00 0.00 0.00 60 1011.8
20260904052118 85 98 0.0 0.0 0.00 0.00 0.00 60 1011.7
20260904051615 85 94 0.0 0.0 0.00 0.00 0.00 59 1012.0
20260904051109 85 91 0.0 0.0 0.00 0.00 0.00 59 1012.0
20260904050604 85 103 0.0 0.0 0.00 0.00 0.00 59 1011.7
20260904045555 86 101 0.0 0.0 0.00 0.00 0.00 58 1011.6
20260904045050 86 107 0.0 0.0 0.00 0.00 0.00 58 1011.4
20260904044546 86 125 0.0 0.0 0.00 0.00 0.00 58 1011.6
20260904044042 86 144 0.0 0.0 0.00 0.00 0.00 58 1011.3
20260904043538 86 110 0.0 0.0 0.00 0.00 0.00 58 1011.5
20260904043034 86 98 0.0 0.0 0.00 0.00 0.00 58 1011.6
20260904042530 86 95 0.0 0.0 0.00 0.00 0.00 58 1011.6
20260904042025 86 98 0.0 0.0 0.00 0.00 0.00 57 1011.6
20260904041521 86 116 0.0 0.0 0.00 0.00 0.00 57 1011.5
20260904041017 87 98 0.0 0.0 0.00 0.00 0.00 57 1011.5
20260904040517 87 123 0.0 0.0 0.00 0.00 0.00 57 1011.7
20260904040014 87 95 0.0 0.0 0.00 0.00 0.00 57 1011.5
20260904035508 87 90 0.0 0.0 0.00 0.00 0.00 57 1011.6
20260904035007 87 141 0.0 0.0 0.00 0.00 0.00 57 1011.5
20260904034502 87 92 0.0 0.0 0.00 0.00 0.00 56 1011.5
20260904033958 87 151 0.0 0.0 0.00 0.00 0.00 56 1011.7
20260904033454 87 101 0.0 0.0 0.00 0.00 0.00 56 1011.5
20260904032950 87 105 0.0 0.0 0.00 0.00 0.00 57 1011.5
20260904032445 87 102 0.0 0.0 0.00 0.00 0.00 56 1011.7
20260904031944 87 97 0.0 0.0 0.00 0.00 0.00 56 1011.6
20260904031440 87 134 0.0 0.0 0.00 0.00 0.00 56 1011.6
20260904030936 88 145 0.0 0.0 0.00 0.00 0.00 55 1011.6
20260904030431 88 102 0.0 0.0 0.00 0.00 0.00 55 1011.4
20260904025926 88 116 0.0 0.0 0.00 0.00 0.00 55 1011.3
20260904025422 88 88 0.0 0.0 0.00 0.00 0.00 55 1011.5
20260904024922 88 133 0.0 0.0 0.00 0.00 0.00 54 1011.4
20260904024417 89 151 0.0 0.0 0.00 0.00 0.00 54 1011.4
20260904023913 89 170 0.0 0.0 0.00 0.00 0.00 54 1011.2
20260904023410 89 131 0.0 0.0 0.00 0.00 0.00 54 1011.3
20260904022908 89 98 0.0 0.0 0.00 0.00 0.00 54 1011.3
20260904022406 89 129 3.0 3.0 0.00 0.00 0.00 53 1011.1
20260904021901 89 114 0.0 0.0 0.00 0.00 0.00 53 1011.4
20260904021356 89 115 0.0 0.0 0.00 0.00 0.00 53 1011.1
20260904020851 89 152 0.0 0.0 0.00 0.00 0.00 52 1010.9
20260904020346 89 101 0.0 0.0 0.00 0.00 0.00 53 1011.2
20260904015845 89 94 0.0 0.0 0.00 0.00 0.00 54 1011.1
20260904015341 89 98 0.0 0.0 0.00 0.00 0.00 54 1011.3
20260904014839 89 94 0.0 0.0 0.00 0.00 0.00 53 1010.9
20260904014329 89 112 0.0 0.0 0.00 0.00 0.00 53 1011.1
20260904013825 89 95 0.0 0.0 0.00 0.00 0.00 53 1010.6
20260904013321 89 101 0.0 0.0 0.00 0.00 0.00 52 1010.9
20260904012817 90 97 0.0 0.0 0.00 0.00 0.00 52 1010.7
20260904012317 90 110 0.0 0.0 0.00 0.00 0.00 51 1010.4
20260904011815 90 133 0.0 0.0 0.00 0.00 0.00 51 1010.6
20260904011311 90 122 0.0 0.0 0.00 0.00 0.00 51 1010.5
20260904010805 91 112 0.0 0.0 0.00 0.00 0.00 50 1010.7
20260904010302 91 107 0.0 0.0 0.00 0.00 0.00 50 1010.4
20260904005757 91 104 0.0 0.0 0.00 0.00 0.00 49 1010.5
20260904005253 91 123 0.0 0.0 0.00 0.00 0.00 49 1010.4
20260904004748 91 103 0.0 0.0 0.00 0.00 0.00 50 1010.5
20260904004244 92 121 0.0 0.0 0.00 0.00 0.00 49 1010.5
20260904003738 92 159 0.0 0.0 0.00 0.00 0.00 49 1010.2
20260904003235 92 105 0.0 0.0 0.00 0.00 0.00 49 1010.4
20260904002730 92 100 0.0 0.0 0.00 0.00 0.00 48 1010.2
20260904002227 92 176 0.0 0.0 0.00 0.00 0.00 48 1010.3
20260904001721 93 174 0.0 0.0 0.00 0.00 0.00 48 1010.2
20260904001220 93 119 0.0 0.0 0.00 0.00 0.00 48 1010.4
20260904000715 93 148 0.0 0.0 0.00 0.00 0.00 47 1010.3
20260904000211 93 100 0.0 0.0 0.00 0.00 0.00 46 1010.1
20260903235704 93 142 0.0 0.0 0.00 0.00 0.00 46 1010.3
20260903235200 94 165 0.0 0.0 0.00 0.00 0.00 46 1010.0
20260903234654 94 136 0.0 0.0 0.00 0.00 0.00 46 1010.5
20260903234150 94 171 0.0 0.0 0.00 0.00 0.00 46 1010.4
20260903233646 94 113 0.0 0.0 0.00 0.00 0.00 46 1010.5
20260903233142 94 142 0.0 0.0 0.00 0.00 0.00 46 1010.4
20260903232636 94 152 0.0 0.0 0.00 0.00 0.00 45 1010.2
20260903232132 95 200 0.0 0.0 0.00 0.00 0.00 44 1010.1
20260903231626 95 126 4.0 5.0 0.00 0.00 0.00 45 1010.4
20260903231126 95 135 1.0 5.0 0.00 0.00 0.00 45 1010.3
20260903230621 95 134 5.0 9.0 0.00 0.00 0.00 45 1010.2
20260903230120 95 122 0.0 0.0 0.00 0.00 0.00 46 1010.5
20260903225618 95 127 1.0 9.0 0.00 0.00 0.00 44 1010.4
20260903225114 95 125 4.0 5.0 0.00 0.00 0.00 44 1010.4
20260903224610 95 147 3.0 6.0 0.00 0.00 0.00 44 1010.2
20260903224106 95 141 8.0 9.0 0.00 0.00 0.00 44 1010.3
20260903223601 95 173 3.0 10.0 0.00 0.00 0.00 45 1010.1
20260903223059 95 144 4.0 8.0 0.00 0.00 0.00 44 1010.0
20260903222554 96 116 0.0 0.0 0.00 0.00 0.00 44 1010.0
20260903222053 96 148 3.0 5.0 0.00 0.00 0.00 44 1010.1
20260903221549 95 106 1.0 8.0 0.00 0.00 0.00 44 1010.4
20260903221047 95 175 7.0 10.0 0.00 0.00 0.00 44 1010.4
20260903220545 96 171 7.0 9.0 0.00 0.00 0.00 44 1010.2
20260903220040 96 131 5.0 7.0 0.00 0.00 0.00 44 1010.3
20260903215539 96 119 0.0 0.0 0.00 0.00 0.00 46 1010.1
20260903215039 95 157 0.0 0.0 0.00 0.00 0.00 44 1010.5
20260903214538 96 159 1.0 9.0 0.00 0.00 0.00 45 1010.3
20260903214034 96 105 2.0 8.0 0.00 0.00 0.00 46 1010.5
20260903213534 96 257 1.0 2.0 0.00 0.00 0.00 47 1010.4
20260903213029 96 110 0.0 0.0 0.00 0.00 0.00 46 1010.6
20260903212525 96 184 0.0 0.0 0.00 0.00 0.00 45 1010.7
20260903212020 96 169 1.0 11.0 0.00 0.00 0.00 45 1010.8
20260903211515 95 104 3.0 6.0 0.00 0.00 0.00 45 1010.7
20260903211012 95 160 3.0 8.0 0.00 0.00 0.00 45 1010.7
20260903210507 96 126 2.0 6.0 0.00 0.00 0.00 45 1010.5
20260903210002 96 182 1.0 7.0 0.00 0.00 0.00 45 1010.6
20260903205456 96 134 0.0 0.0 0.00 0.00 0.00 46 1011.1
20260903204956 95 172 5.0 7.0 0.00 0.00 0.00 46 1010.9
20260903204452 96 113 1.0 9.0 0.00 0.00 0.00 46 1011.0
20260903203948 96 119 0.0 1.0 0.00 0.00 0.00 45 1011.1
20260903203444 95 136 0.0 1.0 0.00 0.00 0.00 45 1011.1
20260903202942 96 191 3.0 3.0 0.00 0.00 0.00 44 1011.3
20260903202438 96 215 0.0 2.0 0.00 0.00 0.00 46 1011.2
20260903201933 96 129 4.0 6.0 0.00 0.00 0.00 45 1011.3
20260903201429 96 168 0.0 3.0 0.00 0.00 0.00 45 1011.2
20260903200928 96 223 3.0 5.0 0.00 0.00 0.00 44 1011.4
20260903200422 96 115 2.0 3.0 0.00 0.00 0.00 45 1011.3
20260903195917 96 123 2.0 7.0 0.00 0.00 0.00 45 1011.5
20260903195414 96 207 1.0 2.0 0.00 0.00 0.00 45 1011.5
20260903194908 95 177 2.0 3.0 0.00 0.00 0.00 46 1011.6
20260903194403 96 184 0.0 0.0 0.00 0.00 0.00 46 1011.5
20260903193859 96 136 0.0 3.0 0.00 0.00 0.00 46 1011.6
20260903193355 95 131 1.0 3.0 0.00 0.00 0.00 46 1011.8
20260903192850 95 166 2.0 3.0 0.00 0.00 0.00 46 1012.0
20260903192346 96 193 2.0 3.0 0.00 0.00 0.00 46 1011.9
20260903191842 95 195 0.0 2.0 0.00 0.00 0.00 46 1011.8
20260903191338 96 209 3.0 5.0 0.00 0.00 0.00 46 1011.9
20260903190837 96 111 0.0 3.0 0.00 0.00 0.00 46 1011.7
20260903190332 95 157 0.0 1.0 0.00 0.00 0.00 46 1011.8
20260903185825 95 201 0.0 5.0 0.00 0.00 0.00 47 1012.0
20260903185320 95 228 2.0 3.0 0.00 0.00 0.00 47 1011.8
20260903184816 95 164 4.0 5.0 0.00 0.00 0.00 48 1011.9
20260903184313 95 154 1.0 5.0 0.00 0.00 0.00 48 1011.9
20260903183808 95 197 0.0 2.0 0.00 0.00 0.00 47 1011.9
20260903183303 95 110 2.0 3.0 0.00 0.00 0.00 47 1012.3
20260903182801 95 157 0.0 1.0 0.00 0.00 0.00 48 1012.1
20260903182256 95 83 3.0 6.0 0.00 0.00 0.00 49 1012.4